Tracking 34142 objects as of 18-May-2026
HD Live streaming from Space Station
objects crossing your sky now

YAOGAN-31 F

Track YAOGAN-31 F now!
10-day predictions


NORAD ID: 47536
Int'l Code: 2021-007E
Perigee: 966.7 km
Apogee: 1,225.7 km
Inclination: 63.4 °
Period: 107.0 minutes
Semi major axis: 7467 km
RCS: Unknown
Launch date: January 29, 2021
Source: People's Republic of China (PRC)
Launch site: Jiuquan Satellite Launch Center, China (JSC)
Your satellite tracking list
Your tracking list is empty




NASA's NSSDC Master Catalog

Two Line Element Set (TLE):
1 47536U 21007E   26138.24013194 -.00000020  00000-0  10849-3 0  9997
2 47536  63.4038 219.1050 0173423   0.5613 359.5577 13.45446328260182
Source of the keplerian elements: AFSPC